"Pseudo-MPEC" for P21vXoZ

Created 2022 Aug 23 7:22:52 UT using Find_Orb

Click here for an explanation of pseudo-MPECs

 
 Astrometry: 
     P21vXoZ  C2022 08 029Py.F5($4nU*Yl3+N+%uAstrometryRl;2Ax`i8jiF6$)nlQI.6]F52
     P21vXoZ  C2022 08 02T.J:]U?2-1Mt,DrF3061L[nuMED65'jD+*'`$mniABve:vR%3Uj9F52
     P21vXoZ  C2022 08 02j^4qredacted;]3click-MnRq6R`:E.*@PZ_kV8Jim:]7Rqb5^pbF52
     P21vXoZ* C2022 08 08S3-8eG-1V7Q`K7Q'OUKvo.gGYO7hereryS%Ug2nRY!=5lIv=:'DCF52
     P21vXoZ  C2022 08 087I?,1`.E5y=iRBD?TlLgmi#98SVR4Uu%$n2jTt5DsRgKt1E($qoKF52
     P21vXoZ  C2022 08 08`LeSYu+HP[M/)9y8346`@#f:h1vl(krB7uQ2[ycpMLyfforK7T9MF52
     P21vXoZ KC2022 08 22:3*ZMsk#?Mn7pfNk;q$vD*ve/g?Ho3[yHbr9explanation?8A3)H36
     P21vXoZ KC2022 08 227T2\LMcC+_h55SD#LFr9[KawDU6v)?3]+I/X2ScLuR;(PrTvDG1pH36
     P21vXoZ KC2022 08 22/.n$*:.#'k/PUA=._C]7^eBWsr!@*q)l?!qI;%'vJ6M%1DgpgJbKH36

Station data:
(F52) Pan-STARRS 2, Haleakala  (N20.707382 W156.255910)  US/Hawaii.
   Observers J. Bulger, T. Dukes, T. Lowe, A. Schultz, M. Willman. Measurers
   K. Chambers, S. Chastel, T. de Boer, L. Denneau, J. Fairlamb, H.
   Flewelling, M. Huber, C.-C. Lin, E. Magnier, Y. Ramanjooloo, R. Wainscoat,
   R. Weryk. 1.8-m Ritchey-Chrétien + CCD.
(H36) Sandlot Observatory, Scranton  (N38.797691 W95.706400)  US/Kansas.
   Observer G. Hug. 0.56-m reflector + CCD.

Orbital elements:  P21vXoZ
   Perihelion 2022 May 10.23929 +/- 0.0917 TT =  5:44:34 (JD 2459709.73929)
Epoch 2022 Aug 22.0 TT = JDT 2459813.5   Earth MOID: 0.4404   AutoNEOCP
M  30.13478495 +/- 0.10             (J2000 ecliptic)
n   0.29042576 +/- 0.00075          Peri.  304.91192 +/- 0.08
a   2.25828779 +/- 0.00389          Node   354.98404 +/- 0.017
e   0.4033341 +/- 0.000716          Incl.   23.69961 +/- 0.012
P   3.39                   H 18.6   G  0.15   U  7.9
q 1.34744314 +/- 0.000759    Q 3.16913244 +/- 0.00706
From 9 observations 2022 Aug. 2-22; mean residual 0".15
Residuals in arcseconds: 
220802 F52  .01+  .08+    220808 F52  .03-  .09+    220822 H36  .03-  .00     
220802 F52  .02+  .00     220808 F52  .01+  .05-    220822 H36  .10-  .41-    
220802 F52  .04-  .08-    220808 F52  .02+  .04-    220822 H36  .13+  .40+    

Ephemerides (geocentric):
Date (UTC) HH   RA             Dec           delta  r     elong  mag " sig PA
---- --------  ------------   ------------  ------ ------ -----  --- --------
2022 08 23 07  02 32 21.871   +23 37 46.55  1.0409 1.6437 106.4 21.2 .158 109
2022 08 23 08  02 32 22.386   +23 38 47.43  1.0407 1.6439 106.5 21.2 .162 109
2022 08 23 09  02 32 22.896   +23 39 48.30  1.0405 1.6441 106.5 21.2 .167 109
2022 08 23 10  02 32 23.401   +23 40 49.17  1.0404 1.6443 106.5 21.2 .172 109
2022 08 23 11  02 32 23.902   +23 41 50.03  1.0402 1.6445 106.6 21.2 .176 109
2022 08 23 12  02 32 24.398   +23 42 50.88  1.0400 1.6447 106.6 21.2 .181 109
2022 08 23 13  02 32 24.889   +23 43 51.73  1.0399 1.6448 106.6 21.2 .186 109
2022 08 23 14  02 32 25.375   +23 44 52.57  1.0397 1.6450 106.7 21.2 .191 109
2022 08 23 15  02 32 25.857   +23 45 53.41  1.0395 1.6452 106.7 21.2 .195 109
2022 08 23 16  02 32 26.334   +23 46 54.24  1.0393 1.6454 106.7 21.2 .200 109
2022 08 23 17  02 32 26.806   +23 47 55.06  1.0392 1.6456 106.7 21.2 .205 109
2022 08 23 18  02 32 27.274   +23 48 55.87  1.0390 1.6458 106.8 21.2 .210 109
2022 08 23 19  02 32 27.736   +23 49 56.68  1.0388 1.6460 106.8 21.2 .215 109
2022 08 23 20  02 32 28.194   +23 50 57.49  1.0386 1.6462 106.8 21.2 .220 109
2022 08 23 21  02 32 28.647   +23 51 58.28  1.0385 1.6464 106.9 21.2 .225 109
2022 08 23 22  02 32 29.096   +23 52 59.07  1.0383 1.6466 106.9 21.2 .230 109
2022 08 23 23  02 32 29.540   +23 53 59.86  1.0381 1.6468 106.9 21.2 .235 109
2022 08 24 00  02 32 29.979   +23 55 00.63  1.0380 1.6470 107.0 21.2 .240 109
2022 08 24 01  02 32 30.413   +23 56 01.40  1.0378 1.6472 107.0 21.2 .245 109
2022 08 24 02  02 32 30.842   +23 57 02.17  1.0376 1.6474 107.0 21.2 .250 109
2022 08 24 03  02 32 31.267   +23 58 02.93  1.0374 1.6476 107.1 21.2 .255 109
2022 08 24 04  02 32 31.687   +23 59 03.68  1.0373 1.6478 107.1 21.2 .261 109
2022 08 24 05  02 32 32.102   +24 00 04.42  1.0371 1.6480 107.1 21.2 .266 109
2022 08 24 06  02 32 32.512   +24 01 05.16  1.0369 1.6482 107.2 21.2 .271 109
2022 08 24 07  02 32 32.917   +24 02 05.89  1.0368 1.6484 107.2 21.2 .276 109
2022 08 24 08  02 32 33.318   +24 03 06.61  1.0366 1.6486 107.2 21.2 .281 109
2022 08 24 09  02 32 33.714   +24 04 07.33  1.0364 1.6488 107.3 21.2 .287 109
2022 08 24 10  02 32 34.105   +24 05 08.04  1.0362 1.6490 107.3 21.2 .292 109
2022 08 24 11  02 32 34.491   +24 06 08.75  1.0361 1.6492 107.3 21.2 .297 109
2022 08 24 12  02 32 34.873   +24 07 09.44  1.0359 1.6493 107.4 21.2 .303 109
2022 08 24 13  02 32 35.249   +24 08 10.13  1.0357 1.6495 107.4 21.2 .308 109
2022 08 24 14  02 32 35.621   +24 09 10.82  1.0356 1.6497 107.4 21.2 .314 109
2022 08 24 15  02 32 35.988   +24 10 11.49  1.0354 1.6499 107.5 21.2 .319 109
2022 08 24 16  02 32 36.350   +24 11 12.16  1.0352 1.6501 107.5 21.2 .324 109
2022 08 24 17  02 32 36.708   +24 12 12.83  1.0351 1.6503 107.5 21.2 .330 109
2022 08 24 18  02 32 37.060   +24 13 13.48  1.0349 1.6505 107.6 21.2 .335 108
2022 08 24 19  02 32 37.408   +24 14 14.13  1.0347 1.6507 107.6 21.2 .341 108
2022 08 24 20  02 32 37.751   +24 15 14.77  1.0345 1.6509 107.6 21.2 .347 108
2022 08 24 21  02 32 38.089   +24 16 15.41  1.0344 1.6511 107.6 21.2 .352 108
2022 08 24 22  02 32 38.422   +24 17 16.03  1.0342 1.6513 107.7 21.2 .358 108
2022 08 24 23  02 32 38.750   +24 18 16.66  1.0340 1.6515 107.7 21.2 .364 108
2022 08 25 00  02 32 39.073   +24 19 17.27  1.0339 1.6517 107.7 21.2 .369 108
2022 08 25 01  02 32 39.392   +24 20 17.88  1.0337 1.6519 107.8 21.2 .375 108
2022 08 25 02  02 32 39.706   +24 21 18.47  1.0335 1.6521 107.8 21.2 .381 108
2022 08 25 03  02 32 40.014   +24 22 19.07  1.0334 1.6523 107.8 21.2 .386 108
2022 08 25 04  02 32 40.318   +24 23 19.65  1.0332 1.6525 107.9 21.2 .392 108
2022 08 25 05  02 32 40.617   +24 24 20.23  1.0330 1.6527 107.9 21.2 .398 108
2022 08 25 06  02 32 40.912   +24 25 20.80  1.0329 1.6529 107.9 21.2 .404 108